Tracking 26321 objects as of 27-Nov-2022
HD Live streaming from Space Station
objects crossing your sky now

STARLINK-3895

Track STARLINK-3895 now!
10-day predictions
STARLINK-3895 is classified as:


NORAD ID: 52583
Int'l Code: 2022-051AZ
Perigee: 545.6 km
Apogee: 548.1 km
Inclination: 53.2 °
Period: 95.4 minutes
Semi major axis: 6917 km
RCS: Unknown
Launch date: May 13, 2022
Source: United States (US)
Launch site: AIR FORCE WESTERN TEST RANGE (AFWTR)
aabbcc
Your satellite tracking list
Your tracking list is empty




NASA's NSSDC Master Catalog

Two Line Element Set (TLE):
1 52583U 22051AZ  22330.65896965  .00000503  00000-0  49689-4 0  9995
2 52583  53.2188 101.7805 0001806  43.7006 316.4129 15.08843915 30574
Source of the keplerian elements: AFSPC